2018-084J (43679 NORAD) Tracking and Keplerian Element Data

This shows tracking and keplerian element data for the satellite.

Feedback or suggestion? Click here.




ElementValue
Catalog43679
Name2018-084J
Epoch Orbit314
Epoch Day323.34462439
Epoch Year2018
RAAN73.7724
Inclination97.8395
Eccentricity0.0007699
Argument of Perigee295.0828
Mean Anonmoly64.9621
Mean Motion14.91907827
Decay Rate8.73E-06
L11 43679U 18084J 18323.34462439 .00000873 00000-0 91990-4 0 9992
L22 43679 97.8395 73.7724 0007699 295.0828 64.9621 14.91907827 3141

Live tracking and technical data element details for 2018-084J (NORAD 43679). 2018-084J can be tracked NOW for your location showing map with azimuth and elevation plus other details from your city location.

Track the satellite on the map from your city or location and see movement details for azimuth, elevation, latitude, longitude, range, height, and movement on the map or in text.







IsCatalogInMostPopularTable: catalog: 43679, numindb: 10
Update: records affected: 1



GetName: 43679 2018-084J

Hit Count: updated at: Tue, 20 Nov 2018 11:13:32 GMT